Weather in Karbany

Russia / Tyumen Oblast     57°13′46″N   66°59′42″E
temp.,
°C
wind,
m/s
gust,
m/s
humid.,
%
clouds,
%
prec.,
mm/h
press.,
hPa
HPBL,
m
13 may, thu
thu1323:00+14nw2357100 0.0 102546
02:00+14wsw2357100 0.0 102463
05:00+14wsw41160100 0.0 1023302
08:00+18wnw48516 0.0 1023426
11:00+24nw693753 0.0 10211899
14:00+26nw6931100 0.0 10212886
17:00+24nne7114029 0.0 10221535
20:00+20nne24555 0.0 102372
14 may, fri
fri1423:00+16ene36565 0.0 1025107
02:00+13e22545 0.0 102623
05:00+12sse22615 0.0 102733
08:00+18s34425 0.0 1027378
11:00+24sw45385 0.0 10261055
14:00+28wsw582912 0.0 10233003
17:00+29wsw58247 0.0 10222763
20:00+25wsw383787 0.0 1020189
15 may, sat
sat1523:00+20wsw35474 0.0 102065
02:00+18wsw36515 0.0 102090
05:00+17wsw365369 0.0 102097
08:00+23w474249 0.0 1020373
11:00+28w68335 0.0 10191602
14:00+31w7923100 0.0 10172918
17:00+30wsw6122459 0.0 10153725
20:00+26w410344 0.0 1015261
16 may, sun
sun1623:00+17ene1375100 1.3 1018132
02:00+15sw3685100 0.1 1017121
05:00+15w2786100 0.1 1018139
08:00+21wsw235839 0.0 1018332
11:00+27wsw57376 0.0 10171306
14:00+31w6924100 0.0 10152154
17:00+31wsw611255 0.0 10143153
20:00+26wsw483313 0.0 1013166
17 may, mon
mon1723:00+21wsw410395 0.0 1013161
02:00+19wsw310460 0.0 1013173
05:00+18wsw411520 0.0 1014209
08:00+24w474226 0.0 1014448
11:00+29w59315 0.0 10132023
14:00+31w682272 0.0 10123742
17:00+25w71236100 0.1 1012926
20:00+20n7106282 0.6 1012391